This is the latest recevied weather packets stored in our database for station/object AC5CM. If no packets are shown the sender has not sent any weather packets the latest 10 day(s).
| Time | Temp. | Humidity | Pressure | Rain* | Wind** | Luminosity | Snow |
|---|---|---|---|---|---|---|---|
| 1777999761 | 26.67° C | 80% | 1010.9 hPa | 0 mm | - | - | - |
| 1777999458 | 27.22° C | 79% | 1010.7 hPa | 0 mm | - | - | - |
| 1777999156 | 26.67° C | 80% | 1010.8 hPa | 0 mm | - | - | - |
| 1777998855 | 27.22° C | 79% | 1010.6 hPa | 0 mm | - | - | - |
| 1777998554 | 27.22° C | 80% | 1010.8 hPa | 0 mm | - | - | - |
| 1777998249 | 26.67° C | 82% | 1010.8 hPa | 0 mm | - | - | - |
| 1777997946 | 26.67° C | 81% | 1010.6 hPa | 0 mm | - | - | - |
| 1777997643 | 26.67° C | 81% | 1010.9 hPa | 0 mm | - | - | - |
| 1777997340 | 26.67° C | 81% | 1010.8 hPa | 0 mm | - | - | - |
| 1777997039 | 26.67° C | 81% | 1010.5 hPa | 0 mm | - | - | - |
| 1777996735 | 26.67° C | 82% | 1010.6 hPa | 0 mm | - | - | - |
| 1777996430 | 26.11° C | 82% | 1010.6 hPa | 0 mm | - | - | - |
| 1777993909 | 25.56° C | 82% | 1010.3 hPa | 0 mm | - | - | - |
| 1777993605 | 25.56° C | 82% | 1010.3 hPa | 0 mm | - | - | - |
| 1777993302 | 26.11° C | 83% | 1010.4 hPa | 0 mm | - | - | - |
| 1777992998 | 26.11° C | 83% | 1010.2 hPa | 0 mm | - | - | - |
| 1777992697 | 25.56° C | 83% | 1010.2 hPa | 0 mm | - | - | - |
| 1777992394 | 25.56° C | 84% | 1010.1 hPa | 0 mm | - | - | - |
| 1777992091 | 25.56° C | 84% | 1010.3 hPa | 0 mm | - | - | - |
| 1777991789 | 25.56° C | 84% | 1010.1 hPa | 0 mm | - | - | - |
| 1777991486 | 25.56° C | 85% | 1010.1 hPa | 0 mm | - | - | - |
| 1777991183 | 25.56° C | 85% | 1010.2 hPa | 0 mm | - | - | - |
| 1777990880 | 25.56° C | 85% | 1010.3 hPa | 0 mm | - | - | - |
| 1777990577 | 25.56° C | 86% | 1010.3 hPa | 0 mm | - | - | - |
| 1777989971 | 24.44° C | 88% | 1010.5 hPa | 0 mm | - | - | - |
* Rain latest hour (hover to see other rain measurements)
** Current wind speed in m/s (hover to see current wind gust speed)